Location: Minneapolis
(45.0000°N, 93.0000°W)
Time: 13:40:36
(UTC-05:00)

Amateur Radio Satellites - All Passes

Search period start: 18 October 2017 13:10
Search period end: 19 October 2017 13:10
Location: Minneapolis, 45.0000°N, 93.0000°W

Satellite Date Start Highest point End Downlink Frequencies (MHz)
Time Altitude Azimuth
Gurwin Techsat 1B 18 Oct 13:12:31 13:17:07 31° 65° (ENE) 13:21:44 435.225
ISS 18 Oct 13:18:08 13:21:12 37° 342° (NNW) 13:24:17 437.550
AO-7 18 Oct 13:25:23 13:30:32 18° 44° (NE) 13:35:42 .
EO-79 18 Oct 13:41:05 13:42:59 13° 271° (W) 13:44:54 145.935-145.965
POLYITAN 1 18 Oct 13:45:37 13:47:06 12° 271° (W) 13:48:36 437.675
SPROUT 18 Oct 13:53:27 13:57:47 82° 284° (WNW) 14:02:04 437.525
50 SAT 18 Oct 13:56:08 13:58:30 18° 94° (E) 14:00:51 437.505
DX 1 18 Oct 13:58:58 14:02:10 20° 93° (E) 14:05:21 434.975-435.025
SO-50 18 Oct 14:07:06 14:07:31 10° 24° (NNE) 14:07:57 436.795
BEESAT 2 18 Oct 14:13:28 14:17:26 64° 121° (ESE) 14:21:28 435.950
M-CUBED/EXP-1 PRIME 18 Oct 14:13:57 14:16:56 27° 257° (WSW) 14:19:49 437.505
AO-85 18 Oct 14:18:41 14:22:24 47° 120° (ESE) 14:26:14 145.980
VELOX 1 18 Oct 14:20:51 14:25:15 64° 286° (WNW) 14:29:37 145.980
ESTCUBE 1 18 Oct 14:23:05 14:25:23 14° 300° (WNW) 14:27:39 437.505/2401.250
UKube-1 18 Oct 14:27:31 14:31:05 25° 95° (E) 14:34:38 .
nSIGHT-1 18 Oct 14:28:15 14:30:55 24° 357° (N) 14:33:37 .
BEESAT 3 18 Oct 14:36:25 14:39:54 28° 315° (NW) 14:43:25 437.485
Oscar 19 18 Oct 14:38:37 14:43:19 35° 263° (W) 14:48:02 437.125/150
BUGSAT 1 18 Oct 14:39:12 14:41:20 14° 270° (W) 14:43:30 437.445
Gurwin Techsat 1B 18 Oct 14:52:01 14:56:57 39° 263° (W) 15:01:55 435.225
ISS 18 Oct 14:55:31 14:58:16 24° 2° (N) 15:01:01 437.550
ITAMSAT 1 18 Oct 15:06:21 15:10:57 33° 65° (ENE) 15:15:34 435.822/435.867
AO-7 18 Oct 15:13:40 15:21:51 68° 66° (ENE) 15:30:03 .
50 SAT 18 Oct 15:28:02 15:30:50 26° 291° (WNW) 15:33:37 437.505
DX 1 18 Oct 15:34:24 15:38:31 43° 290° (WNW) 15:42:39 434.975-435.025
SO-50 18 Oct 15:45:01 15:49:18 37° 46° (NE) 15:53:37 436.795
BEESAT 2 18 Oct 15:52:40 15:55:34 19° 321° (NW) 15:58:29 435.950
AO-85 18 Oct 16:00:00 16:03:02 21° 320° (NW) 16:06:10 145.980
UKube-1 18 Oct 16:03:15 16:07:08 33° 292° (WNW) 16:11:01 .
nSIGHT-1 18 Oct 16:04:48 16:07:47 35° 17° (NNE) 16:10:47 .
MOZHAYETS 4 18 Oct 16:09:14 16:13:37 44° 98° (E) 16:17:58
PCSat 18 Oct 16:10:38 16:13:23 14° 31° (NNE) 16:16:08 145.827
CUBESAT XI-V 18 Oct 16:16:32 16:18:21 12° 88° (E) 16:20:09 437.345
ITUPSAT 1 18 Oct 16:17:49 16:22:27 45° 99° (E) 16:27:01 437.325
ISS 18 Oct 16:32:06 16:35:16 45° 22° (NNE) 16:38:26 437.550
BEESAT 18 Oct 16:34:44 16:39:31 68° 103° (ESE) 16:44:16 436.000
ITAMSAT 1 18 Oct 16:45:38 16:50:21 35° 263° (W) 16:55:06 435.822/435.867
DOVE 4 18 Oct 16:46:50 16:50:27 29° 67° (ENE) 16:54:13 437.250
CUTE-I 18 Oct 17:02:01 17:04:55 15° 57° (ENE) 17:07:50 437.470
XW-2C 18 Oct 17:07:14 17:08:19 11° 62° (ENE) 17:09:22 145.795 - 145.815
AO-7 18 Oct 17:08:13 17:15:11 29° 265° (W) 17:22:12 .
HO-68 18 Oct 17:24:07 17:28:21 17° 49° (NE) 17:32:35 435.675
SO-50 18 Oct 17:25:36 17:29:41 32° 244° (WSW) 17:33:50 436.795
nSIGHT-1 18 Oct 17:41:04 17:44:10 48° 216° (SW) 17:47:16 .
MOZHAYETS 4 18 Oct 17:47:00 17:50:30 22° 296° (WNW) 17:53:57
XW-2F 18 Oct 17:51:29 17:54:49 30° 70° (ENE) 17:58:10 145.980 - 146.000
CUBESAT XI-V 18 Oct 17:51:39 17:56:15 75° 285° (WNW) 18:00:50 437.345
KKS-1 18 Oct 17:51:50 17:55:52 32° 97° (E) 17:59:54 437.445
LilacSat-2 18 Oct 17:51:58 17:55:29 35° 71° (ENE) 17:59:00 437.200
PCSat 18 Oct 17:52:42 17:58:03 54° 53° (NE) 18:03:20 145.827
KAITUO 1B 18 Oct 17:53:36 17:56:43 25° 68° (ENE) 17:59:49 145.475/437.950
ITUPSAT 1 18 Oct 17:56:15 17:59:59 23° 297° (WNW) 18:03:42 437.325
XW-2D 18 Oct 18:01:50 18:05:27 44° 73° (ENE) 18:09:05 145.860 - 145.880
ISS 18 Oct 18:08:43 18:11:41 32° 220° (SW) 18:14:38 437.550
NUDT-PHONESAT 18 Oct 18:10:54 18:14:21 38° 72° (ENE) 18:17:49 437.300
BEESAT 18 Oct 18:13:49 18:16:45 16° 300° (WNW) 18:19:40 436.000
XW-2B 18 Oct 18:15:04 18:18:49 62° 74° (ENE) 18:22:34 145.730 - 145.750
DOVE 4 18 Oct 18:24:40 18:28:09 26° 266° (W) 18:31:46 437.250
STARS 18 Oct 18:30:31 18:34:34 34° 97° (E) 18:38:35 437.465
XW-2C 18 Oct 18:38:09 18:41:57 68° 259° (W) 18:45:45 145.795 - 145.815
CUTE-I 18 Oct 18:38:54 18:44:13 88° 259° (W) 18:49:35 437.470
CUTE 1.7 + AOD 2 18 Oct 18:42:01 18:45:38 28° 68° (ENE) 18:49:16 437.475
SEEDS 18 Oct 18:53:29 18:56:50 24° 67° (ENE) 19:00:11 437.485
HO-68 18 Oct 19:07:45 19:14:52 72° 70° (ENE) 19:22:03 435.675
YUBILEINY 18 Oct 19:18:07 19:23:29 17° 56° (NE) 19:28:49 435.215
CUBEBUG 2 18 Oct 19:20:18 19:24:44 45° 71° (ENE) 19:29:15 437.445
AAUSAT CUBESAT 2 18 Oct 19:23:44 19:26:56 22° 66° (ENE) 19:30:09 437.432
AO-73 18 Oct 19:25:56 19:28:45 16° 62° (ENE) 19:31:35 145.935
XW-2F 18 Oct 19:26:07 19:28:58 20° 266° (W) 19:31:50 145.980 - 146.000
LilacSat-2 18 Oct 19:27:13 19:29:52 18° 267° (W) 19:32:32 437.200
KAITUO 1B 18 Oct 19:27:34 19:30:38 24° 265° (W) 19:33:42 145.475/437.950
KKS-1 18 Oct 19:28:32 19:32:19 27° 294° (WNW) 19:36:05 437.445
STRAND 1 18 Oct 19:31:23 19:34:30 16° 90° (E) 19:37:38 437.568
PCSat 18 Oct 19:36:46 19:41:04 25° 252° (WSW) 19:45:22 145.827
XW-2D 18 Oct 19:37:45 19:39:51 14° 269° (W) 19:41:58 145.860 - 145.880
ZACube-1 18 Oct 19:45:29 19:49:20 27° 67° (ENE) 19:53:12 437.345
NUDT-PHONESAT 18 Oct 19:46:03 19:48:22 16° 268° (W) 19:50:42 437.300
XW-2B 18 Oct 19:52:39 19:53:22 10° 271° (W) 19:54:06 145.730 - 145.750
UWE-3 18 Oct 20:02:27 20:07:03 70° 74° (ENE) 20:11:44 435.000/436.395/437.385
STARS 18 Oct 20:07:05 20:10:46 26° 294° (WNW) 20:14:26 437.465
XW-2A 18 Oct 20:15:36 20:18:59 64° 259° (WSW) 20:22:24 145.665 - 145.685
CUTE 1.7 + AOD 2 18 Oct 20:17:48 20:21:26 27° 265° (W) 20:25:04 437.475
CUTE-I 18 Oct 20:23:03 20:25:01 12° 273° (W) 20:27:00 437.470
Oscar 11 18 Oct 20:25:36 20:29:40 40° 71° (ENE) 20:33:44 .
SEEDS 18 Oct 20:28:35 20:32:21 32° 264° (W) 20:36:08 437.485
BEESAT 2 18 Oct 20:52:51 20:54:46 13° 33° (NNE) 20:56:40 435.950
Max Valier Satellite 18 Oct 20:55:27 20:57:11 13° 63° (ENE) 20:58:54 145.860
HO-68 18 Oct 20:57:44 21:03:14 23° 269° (W) 21:08:46 435.675
CUBEBUG 2 18 Oct 20:57:59 21:01:33 21° 268° (W) 21:05:10 437.445
AAUSAT CUBESAT 2 18 Oct 20:58:29 21:02:13 33° 264° (W) 21:05:57 437.432
AO-73 18 Oct 20:59:59 21:04:29 62° 259° (W) 21:09:02 145.935
AO-85 18 Oct 21:07:41 21:10:21 15° 35° (NE) 21:13:08 145.980
STRAND 1 18 Oct 21:09:03 21:14:12 69° 287° (WNW) 21:19:18 437.568
DELFI C3 18 Oct 21:09:42 21:12:56 25° 68° (ENE) 21:16:12 145.870
BEESAT 3 18 Oct 21:13:13 21:16:59 39° 48° (NE) 21:20:41 437.485
YUBILEINY 18 Oct 21:13:15 21:22:04 73° 79° (E) 21:30:52 435.215
ZACube-1 18 Oct 21:21:19 21:25:28 34° 264° (W) 21:29:40 437.345
UWE-3 18 Oct 21:41:40 21:43:59 14° 272° (W) 21:46:20 435.000/436.395/437.385
O/OREOS (USA 219) 18 Oct 21:41:55 21:46:26 71° 112° (ESE) 21:51:01 437.305
FO-29 18 Oct 21:50:22 21:57:01 56° 100° (E) 22:04:23 435.910
Oscar 11 18 Oct 22:02:44 22:05:57 20° 268° (W) 22:09:11 .
ESTCUBE 1 18 Oct 22:13:26 22:14:06 10° 57° (ENE) 22:14:47 437.505/2401.250
EO-88 18 Oct 22:21:22 22:25:01 88° 254° (WSW) 22:28:41 145.990 - 145.960
UNISAT 6 18 Oct 22:26:16 22:30:19 29° 95° (E) 22:34:17 437.425
Max Valier Satellite 18 Oct 22:26:54 22:30:33 53° 260° (W) 22:34:14 145.860
BEESAT 2 18 Oct 22:29:11 22:33:15 71° 54° (NE) 22:37:14 435.950
PRISM 18 Oct 22:31:36 22:33:32 13° 90° (E) 22:35:27 437.425
TIGRISAT 18 Oct 22:41:26 22:45:45 38° 97° (E) 22:49:59 435.000
DELFI C3 18 Oct 22:44:19 22:47:37 26° 265° (W) 22:50:56 145.870
AO-85 18 Oct 22:46:55 22:51:26 77° 53° (NE) 22:56:17 145.980
STRAND 1 18 Oct 22:51:10 22:52:25 11° 306° (NW) 22:53:41 437.568
BEESAT 3 18 Oct 22:51:14 22:54:18 22° 246° (WSW) 22:57:20 437.485
RS-15 18 Oct 23:07:58 23:09:54 10° 90° (E) 23:11:49 29.354- 29.394
YUBILEINY 18 Oct 23:11:11 23:18:01 26° 280° (W) 23:24:52 435.215
SPROUT 18 Oct 23:15:56 23:17:07 11° 59° (ENE) 23:18:18 437.525
LO-87 18 Oct 23:16:57 23:20:27 54° 73° (ENE) 23:24:00 145.935 - 145.965
O/OREOS (USA 219) 18 Oct 23:23:28 23:26:23 16° 311° (NW) 23:29:18 437.305
FO-29 18 Oct 23:36:00 23:41:48 33° 296° (WNW) 23:48:09 435.910
VELOX 1 18 Oct 23:45:11 23:47:54 16° 62° (ENE) 23:50:38 145.980
ESTCUBE 1 18 Oct 23:45:39 23:50:08 82° 75° (ENE) 23:54:39 437.505/2401.250
UNISAT 6 19 Oct 00:02:54 00:07:00 31° 293° (WNW) 00:11:01 437.425
PRISM 19 Oct 00:05:07 00:09:09 59° 287° (WNW) 00:13:12 437.425
BEESAT 2 19 Oct 00:08:46 00:10:23 12° 251° (WSW) 00:12:02 435.950
QB50P2 19 Oct 00:10:25 00:13:22 18° 92° (E) 00:16:18 145.880/145.840
NANOSAT C BR1 19 Oct 00:15:42 00:18:25 16° 91° (E) 00:21:07 145.865
TIGRISAT 19 Oct 00:18:28 00:22:14 25° 295° (WNW) 00:25:56 435.000
AIST 2D 19 Oct 00:26:39 00:30:06 68° 101° (E) 00:33:32 435.315
DUCHIFAT 1 19 Oct 00:27:12 00:30:15 19° 92° (E) 00:33:17 145.980
AO-85 19 Oct 00:28:48 00:31:23 15° 250° (WSW) 00:34:04 145.980
SPROUT 19 Oct 00:48:03 00:52:19 86° 259° (W) 00:56:39 437.525
LO-87 19 Oct 00:53:23 00:54:12 11° 271° (W) 00:55:02 145.935 - 145.965
DX 1 19 Oct 00:56:17 00:59:39 23° 65° (ENE) 01:03:02 434.975-435.025
RS-15 19 Oct 01:07:36 01:19:16 54° 112° (ESE) 01:30:57 29.354- 29.394
VELOX 1 19 Oct 01:19:36 01:23:54 57° 259° (W) 01:28:14 145.980
EO-79 19 Oct 01:20:43 01:25:01 89° 291° (WNW) 01:29:16 145.935-145.965
UKube-1 19 Oct 01:23:39 01:27:17 27° 66° (ENE) 01:30:56 .
POLYITAN 1 19 Oct 01:24:58 01:29:16 81° 283° (WNW) 01:33:30 437.675
ESTCUBE 1 19 Oct 01:26:32 01:27:31 11° 272° (W) 01:28:29 437.505/2401.250
QB50P2 19 Oct 01:45:17 01:49:22 44° 289° (WNW) 01:53:24 145.880/145.840
NANOSAT C BR1 19 Oct 01:50:17 01:54:23 48° 289° (WNW) 01:58:27 145.865
50 SAT 19 Oct 01:57:38 02:00:50 60° 258° (WSW) 02:04:05 437.505
DUCHIFAT 1 19 Oct 02:02:05 02:06:05 41° 290° (WNW) 02:10:03 145.980
BEESAT 19 Oct 02:08:05 02:10:25 14° 58° (ENE) 02:12:45 436.000
BUGSAT 1 19 Oct 02:16:18 02:20:34 76° 104° (ESE) 02:24:45 437.445
DX 1 19 Oct 02:31:36 02:35:37 38° 262° (W) 02:39:40 434.975-435.025
Oscar 19 19 Oct 02:47:27 02:52:35 71° 102° (ESE) 02:57:40 437.125/150
EO-79 19 Oct 02:59:21 03:00:03 10° 302° (WNW) 03:00:46 145.935-145.965
UKube-1 19 Oct 02:59:26 03:03:12 30° 263° (W) 03:07:01 .
Gurwin Techsat 1B 19 Oct 03:05:36 03:10:56 72° 103° (ESE) 03:16:14 435.225
NO-84 19 Oct 03:11:33 03:13:45 14° 124° (SE) 03:15:56 435.350 FM
MOZHAYETS 4 19 Oct 03:12:32 03:17:03 53° 72° (ENE) 03:21:33
AO-7 19 Oct 03:14:39 03:19:52 18° 89° (E) 03:25:02 .
RS-15 19 Oct 03:19:42 03:31:49 58° 317° (NW) 03:43:52 29.354- 29.394
CUBESAT XI-V 19 Oct 03:21:19 03:24:11 17° 62° (ENE) 03:27:04 437.345
M-CUBED/EXP-1 PRIME 19 Oct 03:23:03 03:26:29 64° 291° (WNW) 03:30:10 437.505
ITUPSAT 1 19 Oct 03:26:06 03:30:52 67° 72° (ENE) 03:35:39 437.325
BEESAT 19 Oct 03:42:43 03:47:30 84° 256° (WSW) 03:52:20 436.000
BUGSAT 1 19 Oct 03:53:35 03:55:17 12° 300° (WNW) 03:56:58 437.445
Oscar 19 19 Oct 04:28:02 04:31:20 18° 301° (WNW) 04:34:37 437.125/150
NO-84 19 Oct 04:46:19 04:50:38 80° 139° (SE) 04:54:50 435.350 FM
Gurwin Techsat 1B 19 Oct 04:46:47 04:50:18 18° 301° (WNW) 04:53:50 435.225
MOZHAYETS 4 19 Oct 04:51:23 04:54:30 18° 269° (W) 04:57:37
KKS-1 19 Oct 04:51:29 04:55:34 38° 69° (ENE) 04:59:42 437.445
ITAMSAT 1 19 Oct 04:55:42 05:00:57 70° 103° (ESE) 05:06:10 435.822/435.867
CUBESAT XI-V 19 Oct 04:56:30 05:01:05 62° 259° (W) 05:05:40 437.345
AO-7 19 Oct 05:05:28 05:13:50 83° 109° (ESE) 05:22:09 .
ITUPSAT 1 19 Oct 05:06:25 05:09:08 15° 270° (W) 05:11:52 437.325
STARS 19 Oct 05:28:40 05:32:43 38° 69° (ENE) 05:36:49 437.465
RS-15 19 Oct 05:37:10 05:47:40 31° 348° (NNW) 05:57:57 29.354- 29.394
XW-2C 19 Oct 06:11:03 06:11:50 10° 89° (E) 06:12:36 145.795 - 145.815
O/OREOS (USA 219) 19 Oct 06:11:14 06:15:00 24° 54° (NE) 06:18:43 437.305
DOVE 4 19 Oct 06:19:23 06:24:18 68° 101° (ESE) 06:29:27 437.250
NO-84 19 Oct 06:24:40 06:28:25 29° 340° (NNW) 06:32:00 435.350 FM
KKS-1 19 Oct 06:28:46 06:32:15 22° 266° (W) 06:35:45 437.445
ITAMSAT 1 19 Oct 06:36:22 06:39:52 18° 301° (WNW) 06:43:20 435.822/435.867
HO-68 19 Oct 06:37:18 06:38:51 11° 84° (E) 06:40:23 435.675
STRAND 1 19 Oct 06:48:39 06:53:00 29° 64° (ENE) 06:57:23 437.568
CUTE-I 19 Oct 06:54:11 06:58:57 32° 96° (E) 07:03:42 437.470
XW-2F 19 Oct 06:55:07 06:58:30 32° 97° (E) 07:01:52 145.980 - 146.000
KAITUO 1B 19 Oct 06:56:04 06:59:13 26° 95° (E) 07:02:19 145.475/437.950
LilacSat-2 19 Oct 06:57:01 07:00:35 39° 98° (E) 07:04:07 437.200
AO-7 19 Oct 06:59:12 07:05:44 27° 309° (NW) 07:12:18 .
STARS 19 Oct 07:05:47 07:09:11 22° 266° (W) 07:12:37 437.465
XW-2D 19 Oct 07:06:08 07:09:47 49° 99° (E) 07:13:24 145.860 - 145.880
NUDT-PHONESAT 19 Oct 07:12:31 07:15:59 39° 98° (E) 07:19:25 437.300
XW-2B 19 Oct 07:19:29 07:23:13 70° 101° (E) 07:26:56 145.730 - 145.750
SO-50 19 Oct 07:41:00 07:45:19 49° 119° (ESE) 07:49:40 436.795
XW-2C 19 Oct 07:42:42 07:46:23 59° 286° (WNW) 07:50:03 145.795 - 145.815
O/OREOS (USA 219) 19 Oct 07:50:13 07:54:36 43° 253° (WSW) 07:58:55 437.305
UWE-3 19 Oct 07:52:06 07:54:05 13° 88° (E) 07:56:02 435.000/436.395/437.385
RS-15 19 Oct 07:53:56 08:04:49 35° 23° (NNE) 08:15:14 29.354- 29.394
DOVE 4 19 Oct 07:58:18 08:01:31 18° 298° (WNW) 08:04:49 437.250
CUTE 1.7 + AOD 2 19 Oct 07:59:50 08:03:50 42° 98° (E) 08:07:48 437.475
NO-84 19 Oct 08:03:46 08:06:48 19° 0° (N) 08:09:42 435.350 FM
FO-29 19 Oct 08:06:47 08:11:02 25° 61° (ENE) 08:15:32 435.910
SEEDS 19 Oct 08:09:53 08:13:39 33° 96° (E) 08:17:26 437.485
HO-68 19 Oct 08:20:47 08:27:58 64° 103° (ESE) 08:35:05 435.675
YUBILEINY 19 Oct 08:24:47 08:29:31 16° 74° (ENE) 08:34:15 435.215
STRAND 1 19 Oct 08:27:14 08:32:01 40° 262° (W) 08:36:52 437.568
XW-2F 19 Oct 08:29:44 08:32:24 19° 294° (WNW) 08:35:04 145.980 - 146.000
KAITUO 1B 19 Oct 08:30:09 08:33:05 23° 292° (WNW) 08:36:00 145.475/437.950
LilacSat-2 19 Oct 08:32:09 08:34:33 16° 295° (WNW) 08:36:57 437.200
CUTE-I 19 Oct 08:34:06 08:39:02 38° 293° (WNW) 08:43:56 437.470
PCSat 19 Oct 08:36:40 08:41:25 32° 110° (ESE) 08:46:10 145.827
AAUSAT CUBESAT 2 19 Oct 08:38:08 08:41:48 30° 96° (E) 08:45:26 437.432
XW-2D 19 Oct 08:41:38 08:43:33 14° 297° (WNW) 08:45:27 145.860 - 145.880
CUBEBUG 2 19 Oct 08:45:24 08:50:07 77° 102° (ESE) 08:54:39 437.445
AO-73 19 Oct 08:46:40 08:50:04 22° 92° (E) 08:53:24 145.935
NUDT-PHONESAT 19 Oct 08:47:17 08:49:32 16° 295° (WNW) 08:51:47 437.300
XW-2B 19 Oct 08:56:15 08:56:50 10° 299° (WNW) 08:57:24 145.730 - 145.750
ZACube-1 19 Oct 09:07:20 09:11:31 40° 97° (E) 09:15:33 437.345
XW-2A 19 Oct 09:07:43 09:11:04 82° 284° (WNW) 09:14:23 145.665 - 145.685
SO-50 19 Oct 09:22:15 09:26:00 26° 319° (NW) 09:29:47 436.795
PRISM 19 Oct 09:23:07 09:24:58 13° 61° (ENE) 09:26:50 437.425
UNISAT 6 19 Oct 09:26:29 09:30:37 33° 68° (ENE) 09:34:49 437.425
UWE-3 19 Oct 09:26:31 09:31:04 69° 285° (WNW) 09:35:27 435.000/436.395/437.385
CUTE 1.7 + AOD 2 19 Oct 09:36:23 09:39:23 19° 295° (WNW) 09:42:22 437.475
TIGRISAT 19 Oct 09:41:23 09:45:45 42° 70° (ENE) 09:50:11 435.000
NO-84 19 Oct 09:41:37 09:45:10 30° 22° (NNE) 09:48:29 435.350 FM
SEEDS 19 Oct 09:45:53 09:49:11 23° 293° (WNW) 09:52:28 437.485
Oscar 11 19 Oct 09:46:25 09:50:42 65° 101° (E) 09:54:57 .
FO-29 19 Oct 09:50:51 09:55:50 46° 262° (W) 10:01:12 435.910
Max Valier Satellite 19 Oct 09:56:30 09:57:52 12° 90° (E) 09:59:13 145.860
RS-15 19 Oct 10:07:24 10:19:30 79° 52° (NE) 10:30:54 29.354- 29.394
HO-68 19 Oct 10:09:12 10:15:12 30° 302° (WNW) 10:21:11 435.675
AAUSAT CUBESAT 2 19 Oct 10:13:45 10:17:07 25° 293° (WNW) 10:20:29 437.432
YUBILEINY 19 Oct 10:16:07 10:24:45 78° 95° (E) 10:33:30 435.215
DELFI C3 19 Oct 10:18:27 10:21:59 31° 96° (E) 10:25:31 145.870
PCSat 19 Oct 10:19:31 10:24:39 43° 309° (NW) 10:29:50 145.827
nSIGHT-1 19 Oct 10:21:02 10:23:03 16° 134° (SE) 10:25:04 .
AO-73 19 Oct 10:22:22 10:26:26 37° 290° (WNW) 10:30:22 145.935
CUBEBUG 2 19 Oct 10:23:41 10:26:03 14° 301° (WNW) 10:28:24 437.445
ZACube-1 19 Oct 10:44:10 10:47:31 21° 295° (WNW) 10:50:47 437.345
POLYITAN 1 19 Oct 10:46:43 10:47:56 11° 59° (ENE) 10:49:10 437.675
ISS 19 Oct 10:49:48 10:52:31 25° 138° (SE) 10:55:16 437.550
PRISM 19 Oct 10:55:43 10:59:43 65° 258° (WSW) 11:03:46 437.425
AIST 2D 19 Oct 11:02:31 11:05:39 31° 71° (ENE) 11:08:47 435.315
UNISAT 6 19 Oct 11:03:16 11:07:18 29° 265° (W) 11:11:24 437.425
QB50P2 19 Oct 11:04:55 11:07:52 18° 63° (ENE) 11:10:50 145.880/145.840
NANOSAT C BR1 19 Oct 11:09:43 11:12:27 17° 63° (ENE) 11:15:11 145.865
TIGRISAT 19 Oct 11:18:56 11:22:35 23° 267° (W) 11:26:17 435.000
NO-84 19 Oct 11:19:02 11:22:47 57° 223° (SW) 11:26:12 435.350 FM
DUCHIFAT 1 19 Oct 11:20:50 11:23:51 19° 64° (ENE) 11:26:52 145.980
EO-88 19 Oct 11:21:24 11:25:03 88° 271° (W) 11:28:39 145.990 - 145.960
Oscar 11 19 Oct 11:24:03 11:26:19 14° 299° (WNW) 11:28:35 .
Max Valier Satellite 19 Oct 11:28:25 11:32:00 50° 287° (WNW) 11:35:32 145.860
ESTCUBE 1 19 Oct 11:37:24 11:39:57 15° 90° (E) 11:42:28 437.505/2401.250
DELFI C3 19 Oct 11:53:28 11:56:35 22° 293° (WNW) 11:59:42 145.870
nSIGHT-1 19 Oct 11:55:47 11:58:58 77° 329° (NNW) 12:02:11 .
PCSat 19 Oct 12:07:35 12:09:33 12° 333° (NNW) 12:11:32 145.827
EO-79 19 Oct 12:14:23 12:18:39 85° 74° (ENE) 12:22:57 145.935-145.965
LO-87 19 Oct 12:14:55 12:18:29 51° 100° (E) 12:22:01 145.935 - 145.965
YUBILEINY 19 Oct 12:15:39 12:22:34 26° 298° (WNW) 12:29:33 435.215
POLYITAN 1 19 Oct 12:18:45 12:23:01 86° 253° (WSW) 12:27:21 437.675
RS-15 19 Oct 12:20:57 12:30:43 32° 256° (WSW) 12:40:08 29.354- 29.394
ISS 19 Oct 12:25:38 12:28:50 53° 336° (NNW) 12:32:03 437.550
Oscar 19 19 Oct 12:29:04 12:32:33 19° 60° (ENE) 12:36:02 437.125/150
SPROUT 19 Oct 12:33:04 12:35:21 14° 90° (E) 12:37:36 437.525
AIST 2D 19 Oct 12:36:34 12:38:54 17° 267° (W) 12:41:15 435.315
M-CUBED/EXP-1 PRIME 19 Oct 12:37:56 12:40:07 16° 61° (ENE) 12:42:16 437.505
QB50P2 19 Oct 12:39:12 12:43:18 47° 261° (W) 12:47:27 145.880/145.840
BEESAT 3 19 Oct 12:41:24 12:45:01 34° 117° (ESE) 12:48:40 437.485
NANOSAT C BR1 19 Oct 12:43:36 12:47:45 52° 260° (W) 12:51:56 145.865
Gurwin Techsat 1B 19 Oct 12:50:41 12:54:32 21° 61° (ENE) 12:58:25 435.225
DUCHIFAT 1 19 Oct 12:55:08 12:59:11 44° 261° (W) 13:03:17 145.980
AO-85 19 Oct 13:06:06 13:07:38 12° 109° (ESE) 13:09:12 145.980
